Location: Banff
(51.1667°N, 115.5667°W)
Time: 15:46:57
(UTC+00:00)

Tiros 1 - Pass Details

Date: 31 July 2021
Orbit: 630 x 663 km, 48.4° (Epoch: 23 September)

Event Time Altitude Azimuth Distance (km) Brightness Sun altitude
Rises 04:43:29 0° 260° (W) 2,974 11.1 -9.7°
Reaches altitude 10° 04:45:51 10° 257° (WSW) 2,058 10.2 -9.9°
Maximum altitude 04:50:32 63° 178° (S) 724 7.2 -10.4°
Drops below altitude 10° 04:55:11 10° 97° (E) 2,037 9.3 -10.9°
Enters shadow 04:55:47 - 96° (E) 2,269 9.5 -11.0°
